Location: Castelbiague
(43.0361°N, 0.9246°E)
Time: 16:48:33
(UTC+00:00)

Daily predictions for brighter satellites

Satellite Brightness Start Highest point End
(mag) Time Altitude Azimuth Time Altitude Azimuth Time Altitude Azimuth
Cosmos 1980 Rocket 3.5 20:03:13 10° SW 20:08:38 48° WNW 20:14:04 10° NNE
Cosmos 1674 Rocket 3.5 20:05:11 10° S 20:09:36 79° E 20:13:59 10° N
SJ-6B 3.8 20:05:49 10° S 20:09:48 50° W 20:13:45 10° NNW
Terra 4.0 20:13:24 10° ENE 20:14:42 11° ENE 20:16:00 10° NE
Meteor 2-10 4.0 20:10:53 10° N 20:15:58 81° E 20:21:08 10° SSE
Cosmos 1726 2.2 20:15:32 10° N 20:19:07 56° E 20:22:41 10° SSE
Lacrosse 5 2.0 20:14:33 10° NW 20:19:37 75° NE 20:24:42 10° SE
Cosmos 1315 Rocket 3.1 20:17:35 10° N 20:21:41 56° ENE 20:25:43 10° SSE
Cosmos 1452 Rocket 3.8 20:19:25 10° S 20:24:28 47° ESE 20:29:31 10° NNE
Cosmos 1844 Rocket 4.0 20:20:51 10° N 20:25:41 28° NE 20:30:28 10° ESE
Cosmos 2056 Rocket 4.4 20:24:45 10° SW 20:29:49 53° WNW 20:35:01 10° NNE
NOSS 3-2 (C) 3.6 20:26:23 10° SW 20:31:57 76° NW 20:38:22 10° NE
ARIANE 5 R/B 3.9 20:29:10 10° SE 20:32:54 27° ENE 20:36:41 10° N
FALCON 9 DEB 3.2 20:32:34 10° SW 20:35:53 51° SE 20:39:13 10° ENE
ATLAS 3B R/B 3.7 20:31:37 10° SSE 20:36:28 22° ESE 20:41:24 10° ENE
SPOT 1/Viking Rocket 3.8 20:33:47 10° SSE 20:38:46 55° ENE 20:43:48 10° N
Cosmos 2263 Rocket 2.8 20:33:44 10° NNW 20:39:19 57° WSW 20:44:51 10° S
Cosmos 1758 3.3 20:36:47 10° N 20:40:45 69° E 20:44:33 11° SSE
Landsat 7 3.8 20:37:11 10° SSE 20:41:56 87° ENE 20:46:43 10° NNW
Spot 2 Rocket 4.1 20:40:28 12° SE 20:44:48 44° ENE 20:49:36 10° N
Cosmos 1707 2.8 20:41:44 10° S 20:45:35 83° W 20:49:30 10° N
Okean 2 4.2 20:42:15 10° SSW 20:46:15 53° W 20:50:16 10° N
Lacrosse 5 rocket 1.8 20:43:15 10° S 20:46:31 30° SE 20:49:43 10° ENE
CZ-2C R/B 3.8 20:41:55 10° NNE 20:46:41 65° ESE 20:51:25 10° S
ERS-1 Rocket 4.0 20:44:31 13° SE 20:48:24 32° ENE 20:52:51 10° N
Okean 1 Rocket 3.5 20:44:04 10° NNW 20:48:24 64° W 20:52:44 10° S
In-Cosmos 22 4.1 20:43:14 10° S 20:48:27 67° E 20:53:43 10° NNE
Cosmos 1455 Rocket 3.7 20:46:18 10° N 20:50:33 42° ENE 20:53:47 16° SE
MetOp-B 4.2 20:48:54 10° SSE 20:54:14 90° W 20:59:38 10° NNW
Meteor 2-20 Rocket 4.4 20:50:03 10° S 20:56:09 78° E 21:02:15 10° N
BREEZE-M DEB (TANK) 1.7 20:56:26 10° SW 20:58:39 40° SE 21:01:56 10° ENE
Cosmos 2333 Rocket 3.2 20:55:53 15° SSE 20:59:30 27° ESE 21:04:13 10° NE
Cosmos 1727 Rocket 4.0 20:53:34 10° S 20:59:54 89° E 21:06:13 10° N
USA 215 4.1 20:58:08 10° ENE 21:03:23 25° SE 21:08:35 10° S
Cosmos 1626 2.9 21:04:14 21° SE 21:06:06 34° E 21:09:29 10° NNE
SPOT 3 Rocket 4.1 21:01:30 10° S 21:06:33 57° W 21:11:40 10° NNW
Cosmos 1953 2.5 21:03:46 10° N 21:07:48 59° E 21:10:22 21° SSE
Cosmos 1741 Rocket 4.0 21:03:13 10° NNW 21:08:30 78° ENE 21:12:22 19° SSE
SL-14 R/B 4.5 21:08:37 20° SE 21:10:13 26° E 21:13:38 10° NNE
Cosmos 2219 Rocket 3.2 21:07:37 18° SE 21:10:34 28° ESE 21:15:19 10° NE
Cosmos 1844 4.1 21:07:30 10° NNW 21:12:55 49° ENE 21:16:41 19° SE
CENTAUR R/B 4.1 21:10:05 10° WSW 21:15:42 39° NW 21:22:22 10° NNE
Cosmos 1802 Rocket 4.2 21:13:05 10° N 21:19:17 59° E 21:23:39 20° SSE
KORONAS-FOTON 4.0 21:21:44 12° SSW 21:25:08 68° W 21:28:55 10° N
Cosmos 1025 Rocket 3.0 21:22:43 20° S 21:25:38 66° E 21:29:58 10° NNE
CARTOSAT-1 3.7 21:27:34 21° S 21:30:20 73° WSW 21:34:41 10° NNW
Aureole 1 Rocket 4.1 21:24:42 10° NNW 21:30:41 82° ENE 21:35:49 22° SSE
Resurs 01 Rocket 3.6 21:28:22 10° SSW 21:31:51 23° W 21:35:21 10° NW
Cosmos 2360 Rocket 2.3 21:27:04 10° SSW 21:32:43 78° WNW 21:38:23 10° NNE
SL-16 R/B 3.8 21:27:37 10° SW 21:32:50 37° WNW 21:38:06 10° N
Cosmos 1459 Rocket 3.9 21:27:29 10° N 21:33:34 88° W 21:37:54 20° S
Cosmos 1461 2.7 21:30:04 10° NNW 21:34:18 90° NNE 21:36:05 32° SSE
Cosmos 2322 Rocket 3.4 21:29:24 10° SW 21:34:51 45° WNW 21:40:20 10° NNE
Cosmos 1975 Rocket 4.1 21:35:23 10° SSW 21:39:33 45° WNW 21:43:47 10° N
Cosmos 1674 3.8 21:38:15 11° SSW 21:41:40 40° WNW 21:45:12 10° N
Cosmos 1900 4.4 21:37:40 10° NNW 21:42:34 66° NE 21:44:58 29° SE
Cosmos 1110 Rocket 4.2 21:38:09 10° SSW 21:43:18 70° WNW 21:48:32 10° NNE
SPOT 5 3.0 21:41:31 25° S 21:44:39 79° WSW 21:49:38 10° NNW
ATLAS CENTAUR R/B 2.2 21:42:00 10° NNW 21:46:14 47° NE 21:48:22 27° ESE
Meteor 2-11 Rocket 4.5 21:40:32 10° N 21:46:39 79° W 21:50:42 22° S
Cosmos 968 Rocket 4.3 21:46:21 10° N 21:51:07 38° ENE 21:53:28 24° ESE
COSMOS 2428 3.0 21:48:21 27° SSE 21:51:10 48° ESE 21:56:41 10° NE
Terra 1.8 21:49:22 31° SSE 21:51:41 87° ENE 21:56:28 10° NNW
Cosmos 2322 3.6 21:48:35 17° SSW 21:52:56 73° ESE 21:58:36 10° NNE
FALCON 9 DEB 4.1 21:54:51 29° ENE 21:54:51 29° ENE 21:56:37 10° ENE
Cosmos 1300 2.9 21:49:49 10° N 21:53:36 56° E 21:54:30 43° SE
Cosmos 2061 Rocket 4.0 21:48:59 10° N 21:55:28 87° E 21:59:13 27° S
Uosat 12 SS-18 rocket 4.5 21:54:41 37° SE 21:55:33 42° ESE 22:00:03 10° NE
Cosmos 1864 Rocket 4.4 21:51:10 10° N 21:57:23 86° E 22:00:48 28° S
SL-24 R/B 4.4 21:54:43 10° N 21:59:32 67° E 22:01:30 35° SSE
ATLAS CENTAUR R/B 4.4 21:59:32 17° ESE 22:00:01 17° E 22:04:52 10° ENE
Cosmos 2278 Rocket 3.7 21:55:51 10° N 22:00:40 27° NE 22:04:01 16° E
Cosmos 405 2.8 21:57:47 10° N 22:01:14 86° E 22:01:49 59° SSE
Lacrosse 5 3.6 21:58:30 10° WNW 22:02:06 20° WSW 22:04:03 16° SSW
Cosmos 2123 Rocket 4.1 21:59:12 20° S 22:03:45 81° W 22:10:07 10° N
Cosmos 1340 3.1 22:06:52 31° SW 22:08:28 58° WNW 22:12:12 10° N
SL-8 R/B 3.6 22:04:24 10° WNW 22:09:12 80° SSW 22:10:57 39° SE
ARIANE 5 R/B 4.1 22:06:43 18° SW 22:09:15 30° W 22:13:13 10° NW
Cosmos 1844 Rocket 3.3 22:04:21 10° NW 22:09:49 49° WSW 22:12:33 27° SSW
Cosmos 1346 Rocket 3.3 22:11:16 40° ESE 22:11:33 40° E 22:15:20 10° NNE
FALCON 9 DEB 3.2 22:11:11 11° WSW 22:14:08 64° NNW 22:17:13 10° NE
H-2A R/B 3.6 22:10:22 10° N 22:14:26 69° WNW 22:16:09 33° SSW
Cosmos 2233 Rocket 4.0 22:08:20 10° N 22:14:30 73° E 22:17:17 34° SSE
GEOS 3 Rocket 4.5 22:11:18 21° ESE 22:14:30 45° NE 22:19:34 10° NNW
FALCON 9 DEB 2.9 22:18:01 77° N 22:18:01 77° N 22:21:03 10° NE
NOSS 0 Rocket 4.4 22:16:43 34° SE 22:18:29 42° ESE 22:24:17 10° NE
SL-4 R/B 4.4 22:22:17 10° ENE 22:22:17 10° ENE 22:22:22 10° ENE
Meteor 2-5 Rocket 3.7 22:18:54 28° SSW 22:21:57 77° W 22:27:35 10° N
FALCON 9 DEB 3.5 22:21:32 18° WSW 22:23:36 56° NNW 22:26:40 10° NE
Lacrosse 5 rocket 2.8 22:22:12 10° W 22:25:33 32° NW 22:28:50 10° NNE
ATLAS 3B R/B 2.8 22:19:56 10° SW 22:26:27 72° NW 22:33:13 10° NNE
ERS-1 Rocket 4.3 22:24:30 20° SW 22:27:08 31° W 22:31:37 10° NNW
Cosmos 1606 Rocket 3.9 22:24:03 10° N 22:28:26 51° E 22:29:16 45° ESE
Cosmos 1892 Rocket 4.3 22:29:33 35° E 22:29:52 35° E 22:33:55 10° NNE
ALOS 2 4.0 22:32:40 23° E 22:33:47 26° ENE 22:37:25 10° NNE
Cosmos 1980 4.1 22:35:59 40° SE 22:37:04 44° ESE 22:42:27 10° NE
Spot 4 4.2 22:39:08 43° ESE 22:40:20 55° ENE 22:45:01 10° N
Cosmos 2333 Rocket 3.1 22:37:56 10° SW 22:43:29 47° WNW 22:49:01 10° NNE
USA 215 3.2 22:40:19 10° NE 22:46:54 89° NW 22:53:27 10° SW
Meteor 2-10 Rocket 3.5 22:48:31 10° NNW 22:53:34 68° W 22:54:49 48° SSW
Cosmos 2219 Rocket 3.1 22:49:15 12° SW 22:54:16 45° WNW 22:59:44 10° NNE
Cosmos 1464 Rocket 4.2 22:53:32 10° N 22:59:50 61° E 23:02:03 40° SE
Cosmos 1867 3.5 22:54:53 10° NW 23:00:24 88° SW 23:01:49 52° SSE
Cosmos 1607 4.3 22:55:43 10° NNW 23:02:04 59° NE 23:05:04 31° ESE
Cosmos 389 Rocket 3.1 23:01:04 10° NNW 23:04:01 47° WNW 23:04:01 47° WNW
Iridium 2 3.7 23:05:20 70° WNW 23:05:20 70° WNW 23:09:02 10° N
COBE Rocket 4.0 23:04:31 53° SE 23:05:37 72° ENE 23:10:35 10° N
SL-16 R/B 3.4 23:06:18 25° ESE 23:06:32 25° ESE 23:11:04 10° NE
Cosmos 2237 Rocket 2.1 23:09:08 50° S 23:10:37 78° ESE 23:16:16 10° NNE
Cosmos 2228 3.8 23:09:00 10° NNW 23:13:09 41° W 23:13:45 38° WSW
Meteor 1-4 Rocket 4.2 23:14:07 10° NNE 23:16:45 25° ENE 23:16:45 25° ENE
USA 267 3.5 23:14:47 20° ESE 23:19:31 68° NE 23:26:02 10° NW
Cosmos 1455 2.4 23:17:04 10° NNW 23:20:36 63° WNW 23:20:36 63° WNW
Cosmos 1184 Rocket 3.7 23:22:45 47° N 23:22:45 47° N 23:25:13 10° N
ATLAS CENTAUR R/B 3.3 23:21:30 10° WNW 23:24:30 21° WSW 23:24:30 21° WSW
Okean 1-7 Rocket 3.4 23:27:36 78° SSE 23:27:53 86° E 23:32:21 10° N
Cosmos 2034 Rocket 3.9 23:27:44 10° N 23:33:57 78° E 23:35:44 49° SSE
Meteor 1-21 Rocket 4.2 23:33:20 52° SSW 23:34:46 81° W 23:40:30 10° N
COSMOS 2428 4.4 23:30:47 10° WSW 23:35:41 28° NW 23:40:36 10° N
Cosmos 1354 Rocket 4.0 23:33:20 10° NNW 23:38:38 68° WSW 23:39:29 58° SSW
Cosmos 192 4.4 23:38:55 54° SW 23:39:55 70° WNW 23:44:51 10° NNE
Cosmos 2058 Rocket 3.5 23:40:05 10° NNW 23:44:23 50° W 23:44:34 49° WSW
Cosmos 1812 Rocket 4.2 23:40:45 10° N 23:44:55 44° ENE 23:45:17 43° E
Cosmos 2278 Rocket 2.5 23:39:32 10° NW 23:44:59 49° WSW 23:45:51 45° SW
GEOS 3 Rocket 4.4 23:52:23 36° WSW 23:52:33 36° WSW 23:57:28 10° NW
